Location: ????????
(54.9045°N, 39.1041°E)
Time: 11:06:36
(UTC+00:00)

Cosmos 1470 Rocket - Pass Details

Date: 14 April 2024
Orbit: 601 x 629 km, 82.5° (Epoch: 22 May)

Event Time Altitude Azimuth Distance (km) Brightness Sun altitude
Rises 01:15:14 0° 348° (NNW) 2,889 7.3 -9.6°
Reaches altitude 10° 01:17:27 10° 349° (N) 1,984 6.4 -9.3°
Maximum altitude 01:21:52 84° 78° (ENE) 628 3.6 -8.8°
Drops below altitude 10° 01:26:16 10° 168° (SSE) 1,986 6.0 -8.2°
Sets 01:28:30 0° 169° (SSE) 2,891 6.8 -7.9°
